Satellite: COSMOS 2123
Catalog number: 21089
Epoch time:      103114.55083539
Element set:     507 
Inclination:       82.9212 deg
RA of node:       133.1744 deg
Eccentricity:    0.0030814
Arg of perigee:   103.6662 deg
Mean anomaly:     256.7921 deg
Mean motion:   13.74411402 rev/day
Decay rate:    7.7999E-007 rev/day^2
Epoch rev:           61271
Checksum:              306

Satellite: ASTRA 1B
Catalog number: 21139
Epoch time:      103108.00000000
Element set:     168 
Inclination:        0.0122 deg
RA of node:       319.8851 deg
Eccentricity:    0.0002995
Arg of perigee:    65.1991 deg
Mean anomaly:     199.7843 deg
Mean motion:    1.00273184 rev/day
Decay rate:    1.1399E-006 rev/day^2
Epoch rev:            3277
Checksum:              264

Satellite: METEOSAT 5 (MO
Catalog number: 21140
Epoch time:      103113.80447631
Element set:     811 
Inclination:        5.7761 deg
RA of node:        69.4802 deg
Eccentricity:    0.0001224
Arg of perigee:    27.0271 deg
Mean anomaly:     107.3185 deg
Mean motion:    1.00272709 rev/day
Decay rate:    7.9999E-008 rev/day^2
Epoch rev:            4669
Checksum:              287

Satellite: NOAA 12
Catalog number: 21263
Epoch time:      103117.65761253
Element set:     58 
Inclination:       98.6344 deg
RA of node:       106.1791 deg
Eccentricity:    0.0012431
Arg of perigee:   178.6351 deg
Mean anomaly:     181.4861 deg
Mean motion:   14.25128679 rev/day
Decay rate:    2.6699E-006 rev/day^2
Epoch rev:           62091
Checksum:              316

Satellite: OSCAR 22 (UoSA
Catalog number: 21575
Epoch time:      103116.52943549
Element set:     783 
Inclination:       98.1484 deg
RA of node:       105.3163 deg
Eccentricity:    0.0006609
Arg of perigee:   298.2253 deg
Mean anomaly:      61.8264 deg
Mean motion:   14.39202631 rev/day
Decay rate:    2.4799E-006 rev/day^2
Epoch rev:           61791
Checksum:              333

Satellite: METEOR 3-5
Catalog number: 21655
Epoch time:      103116.22505644
Element set:     517 
Inclination:       82.5594 deg
RA of node:       351.7849 deg
Eccentricity:    0.0014437
Arg of perigee:    34.9640 deg
Mean anomaly:     325.2427 deg
Mean motion:   13.16982664 rev/day
Decay rate:    5.1000E-007 rev/day^2
Epoch rev:           56225
Checksum:              307

Satellite: UARS
Catalog number: 21701
Epoch time:      103116.54294667
Element set:     879 
Inclination:       56.9792 deg
RA of node:       120.9405 deg
Eccentricity:    0.0005220
Arg of perigee:    84.4434 deg
Mean anomaly:     275.7186 deg
Mean motion:   15.02999541 rev/day
Decay rate:    5.9300E-006 rev/day^2
Epoch rev:           63578
Checksum:              327

Satellite: EUTELSAT 2-F3
Catalog number: 21803
Epoch time:      103116.92786676
Element set:     545 
Inclination:        2.7658 deg
RA of node:        88.3728 deg
Eccentricity:    0.0004824
Arg of perigee:   281.1221 deg
Mean anomaly:     200.6773 deg
Mean motion:    1.00272983 rev/day
Decay rate:    1.2199E-006 rev/day^2
Epoch rev:            3767
Checksum:              312

Satellite: INMARSAT 2-F3
Catalog number: 21814
Epoch time:      103116.47466142
Element set:     654 
Inclination:        1.8803 deg
RA of node:        60.2733 deg
Eccentricity:    0.0003253
Arg of perigee:   350.6674 deg
Mean anomaly:     191.9727 deg
Mean motion:    1.00273770 rev/day
Decay rate:    1.0100E-006 rev/day^2
Epoch rev:            4156
Checksum:              263

Satellite: INMARSAT 2-F4
Catalog number: 21940
Epoch time:      103113.66465124
Element set:     589 
Inclination:        2.4133 deg
RA of node:        21.7241 deg
Eccentricity:    0.0002038
Arg of perigee:     3.1438 deg
Mean anomaly:     174.7041 deg
Mean motion:    1.00270002 rev/day
Decay rate:   -3.6799E-006 rev/day^2
Epoch rev:            4032
Checksum:              244

Satellite: EUTELSAT 2-F4
Catalog number: 22028
Epoch time:      103116.91864006
Element set:     342 
Inclination:        1.8850 deg
RA of node:        91.5337 deg
Eccentricity:    0.0006192
Arg of perigee:   282.6932 deg
Mean anomaly:     158.6434 deg
Mean motion:    1.00271881 rev/day
Decay rate:   -1.0799E-006 rev/day^2
Epoch rev:            3245
Checksum:              290

Satellite: OSCAR 23 (KITS
Catalog number: 22077
Epoch time:      103115.57190482
Element set:     171 
Inclination:       66.0838 deg
RA of node:       347.5078 deg
Eccentricity:    0.0015565
Arg of perigee:   258.8853 deg
Mean anomaly:     101.0416 deg
Mean motion:   12.86410816 rev/day
Decay rate:   -3.7000E-007 rev/day^2
Epoch rev:           50279
Checksum:              304

Satellite: ASTRA 1C
Catalog number: 22653
Epoch time:      103108.00000000
Element set:     796 
Inclination:        0.0122 deg
RA of node:       319.8851 deg
Eccentricity:    0.0002995
Arg of perigee:    65.1991 deg
Mean anomaly:     199.7728 deg
Mean motion:    1.00273184 rev/day
Decay rate:    1.1399E-006 rev/day^2
Epoch rev:            3147
Checksum:              271

Satellite: METEOR 2-21
Catalog number: 22782
Epoch time:      103117.44252478
Element set:     579 
Inclination:       82.5502 deg
RA of node:       161.0823 deg
Eccentricity:    0.0023205
Arg of perigee:   152.6648 deg
Mean anomaly:     207.5749 deg
Mean motion:   13.83537604 rev/day
Decay rate:    8.2000E-007 rev/day^2
Epoch rev:           48747
Checksum:              312

Satellite: KITSAT B
Catalog number: 22825
Epoch time:      103116.55305570
Element set:     541 
Inclination:       98.2664 deg
RA of node:       142.8159 deg
Eccentricity:    0.0009634
Arg of perigee:    61.9546 deg
Mean anomaly:     298.2617 deg
Mean motion:   14.28966552 rev/day
Decay rate:    9.5000E-007 rev/day^2
Epoch rev:           49944
Checksum:              331

Satellite: POSAT 1
Catalog number: 22826
Epoch time:      103117.13291504
Element set:     345 
Inclination:       98.2695 deg
RA of node:       144.5109 deg
Eccentricity:    0.0010052
Arg of perigee:    59.2007 deg
Mean anomaly:     301.0164 deg
Mean motion:   14.29192010 rev/day
Decay rate:    1.1099E-006 rev/day^2
Epoch rev:           49957
Checksum:              276

Satellite: ITAMSAT
Catalog number: 22828
Epoch time:      103116.60722470
Element set:     481 
Inclination:       98.2632 deg
RA of node:       144.2755 deg
Eccentricity:    0.0010911
Arg of perigee:    41.4760 deg
Mean anomaly:     318.7225 deg
Mean motion:   14.29529911 rev/day
Decay rate:    6.1999E-007 rev/day^2
Epoch rev:           46770
Checksum:              310

Satellite: EYESAT A
Catalog number: 22829
Epoch time:      103117.51367026
Element set:     508 
Inclination:       98.2654 deg
RA of node:       145.7775 deg
Eccentricity:    0.0010830
Arg of perigee:    39.6470 deg
Mean anomaly:     320.5530 deg
Mean motion:   14.29802879 rev/day
Decay rate:    1.7700E-006 rev/day^2
Epoch rev:           49976
Checksum:              321

Satellite: METEOSAT 6
Catalog number: 22912
Epoch time:      103110.98704862
Element set:     766 
Inclination:        2.8246 deg
RA of node:        82.1213 deg
Eccentricity:    0.0002856
Arg of perigee:   322.3450 deg
Mean anomaly:     169.6545 deg
Mean motion:    1.00284576 rev/day
Decay rate:    5.9000E-007 rev/day^2
Epoch rev:            3291
Checksum:              283

Satellite: GOES 8
Catalog number: 23051
Epoch time:      103117.46806056
Element set:     706 
Inclination:        0.4657 deg
RA of node:        99.3968 deg
Eccentricity:    0.0005407
Arg of perigee:   340.8512 deg
Mean anomaly:     227.0934 deg
Mean motion:    1.00255107 rev/day
Decay rate:   -2.5100E-006 rev/day^2
Epoch rev:            4048
Checksum:              273

Satellite: ASTRA 1D
Catalog number: 23331
Epoch time:      103115.85328919
Element set:     836 
Inclination:        0.0666 deg
RA of node:       157.8785 deg
Eccentricity:    0.0003229
Arg of perigee:   236.6883 deg
Mean anomaly:     150.2238 deg
Mean motion:    1.00272993 rev/day
Decay rate:    1.2599E-006 rev/day^2
Epoch rev:            3153
Checksum:              303

Satellite: RADIO ROSTO
Catalog number: 23439
Epoch time:      103114.92570544
Element set:     699 
Inclination:       64.8137 deg
RA of node:       295.7974 deg
Eccentricity:    0.0146445
Arg of perigee:   102.4112 deg
Mean anomaly:     259.3243 deg
Mean motion:   11.27548666 rev/day
Decay rate:   -3.8999E-007 rev/day^2
Epoch rev:           34296
Checksum:              348

Satellite: NOAA 14
Catalog number: 23455
Epoch time:      103117.64969747
Element set:     607 
Inclination:       99.1825 deg
RA of node:       138.0052 deg
Eccentricity:    0.0009942
Arg of perigee:    42.9748 deg
Mean anomaly:     317.2198 deg
Mean motion:   14.13323250 rev/day
Decay rate:    1.2100E-006 rev/day^2
Epoch rev:           42909
Checksum:              310

Satellite: HIMAWARI 5 (GM
Catalog number: 23522
Epoch time:      103116.73692968
Element set:     205 
Inclination:        1.8491 deg
RA of node:        83.6916 deg
Eccentricity:    0.0001029
Arg of perigee:   312.8732 deg
Mean anomaly:     223.2362 deg
Mean motion:    1.00276572 rev/day
Decay rate:   -2.8800E-006 rev/day^2
Epoch rev:            2956
Checksum:              292

